sat.trackr.live / text

‹ back to catalog

STARLINK-36310

NORAD 68244 · 2026-054N

PAYLOAD ACTIVE UNKNOWN

§ Identity

Operator
Country
US
Launch date
2026-03-17
Launch site
AFETR
Launch vehicle
Mass (kg)
RCS (m²)

Purposes: comms

External: N2YO · Heavens-Above · Gunter

§ Orbital elements

Epoch: 2026-05-24T19:44:48.615360Z

Period
93.37 min
Inclination
53.1587°
Eccentricity
0.0001058
Mean motion
15.42178540 rev/d
Perigee alt
439.0 km
Apogee alt
440.4 km
Semi-major
6,817.8 km
B*
6.7144e-4
RAAN
300.7402°
Arg perigee
79.4305°
Mean anomaly
280.6821°
Rev number
1,068

§ Raw data

STARLINK-363101 68244U 26054N   26144.82278490  .00028935  00000+0  67144-3 0  99992 68244  53.1587 300.7402 0001058  79.4305 280.6821 15.42178540 10682

JSON: /api/v1/satellites/68244 · /tle

For live sub-satellite position, see the globe view (requires WebGL).

§ Visibility from observer

Set your observer location to see the next 7 days of passes ≥ 10°. The values pass through the URL so the page stays shareable.

No JS? Fill the form by hand. The geolocation button needs JavaScript.